| time (UTC) | temp F | wind direction | speed knots | gust knots | rain 1hr in | rain 24hr in | rain mn in | humidity % | barometer mb |
| 20260510143755 | 64 | 113 | 2.6 | 6.1 | 0.00 | 0.00 | 0.00 | 71 | 990.0 |
| 20260510143252 | 65 | 29 | 3.5 | 6.1 | 0.00 | 0.00 | 0.00 | 71 | 989.9 |
| 20260510142748 | 64 | 52 | 2.6 | 8.7 | 0.00 | 0.00 | 0.00 | 72 | 989.9 |
| 20260510142245 | 64 | 113 | 0.0 | 7.0 | 0.00 | 0.00 | 0.00 | 74 | 990.1 |
| 20260510141742 | 64 | 45 | 2.6 | 7.0 | 0.00 | 0.00 | 0.00 | 73 | 989.8 |
| 20260510141241 | 64 | 7 | 1.7 | 7.8 | 0.00 | 0.00 | 0.00 | 73 | 989.6 |
| 20260510140737 | 64 | 351 | 0.0 | 8.7 | 0.00 | 0.00 | 0.00 | 74 | 989.5 |
| 20260510140232 | 64 | 34 | 5.2 | 7.8 | 0.00 | 0.00 | 0.00 | 73 | 989.6 |
| 20260510135726 | 64 | 26 | 2.6 | 12.2 | 0.00 | 0.00 | 0.00 | 73 | 989.3 |
| 20260510135222 | 64 | 67 | 3.5 | 7.8 | 0.00 | 0.00 | 0.00 | 72 | 989.3 |
| 20260510134720 | 64 | 21 | 1.7 | 6.1 | 0.00 | 0.00 | 0.00 | 72 | 989.2 |
| 20260510134217 | 63 | 349 | 2.6 | 9.6 | 0.00 | 0.00 | 0.00 | 72 | 989.1 |
| 20260510133713 | 64 | 18 | 1.7 | 6.1 | 0.00 | 0.00 | 0.00 | 73 | 989.1 |
| 20260510133208 | 64 | 352 | 1.7 | 7.8 | 0.00 | 0.00 | 0.00 | 72 | 989.1 |
| 20260510132659 | 63 | 30 | 2.6 | 8.7 | 0.00 | 0.00 | 0.00 | 72 | 989.1 |
| 20260510132156 | 63 | 109 | 0.9 | 7.0 | 0.00 | 0.00 | 0.00 | 74 | 988.8 |
| 20260510131654 | 63 | 19 | 2.6 | 7.8 | 0.00 | 0.00 | 0.00 | 74 | 988.7 |
| 20260510131151 | 63 | 110 | 2.6 | 7.0 | 0.00 | 0.00 | 0.00 | 75 | 988.7 |
| 20260510130647 | 62 | 21 | 2.6 | 7.8 | 0.00 | 0.00 | 0.00 | 74 | 988.6 |
| 20260510130145 | 62 | 48 | 1.7 | 7.8 | 0.00 | 0.00 | 0.00 | 75 | 988.7 |
| 20260510125641 | 62 | 75 | 2.6 | 6.1 | 0.00 | 0.00 | 0.00 | 76 | 988.5 |
| 20260510125137 | 62 | 17 | 1.7 | 7.0 | 0.00 | 0.00 | 0.00 | 77 | 988.4 |
| 20260510124635 | 62 | 13 | 2.6 | 6.1 | 0.00 | 0.00 | 0.00 | 78 | 988.2 |
| 20260510124131 | 61 | 25 | 1.7 | 7.0 | 0.00 | 0.00 | 0.00 | 78 | 988.2 |
| 20260510123627 | 61 | 5 | 3.5 | 7.8 | 0.00 | 0.00 | 0.00 | 78 | 988.2 |
| 20260510123123 | 61 | 39 | 2.6 | 6.1 | 0.00 | 0.00 | 0.00 | 79 | 988.1 |
| 20260510122619 | 61 | 96 | 1.7 | 4.3 | 0.00 | 0.00 | 0.00 | 79 | 987.9 |
| 20260510122115 | 61 | 0 | 0.9 | 4.3 | 0.00 | 0.00 | 0.00 | 80 | 987.8 |
| 20260510121612 | 61 | 128 | 2.6 | 7.0 | 0.00 | 0.00 | 0.00 | 80 | 987.8 |
| 20260510121109 | 61 | 351 | 2.6 | 4.3 | 0.00 | 0.00 | 0.00 | 81 | 987.8 |
| 20260510120607 | 60 | 16 | 1.7 | 5.2 | 0.00 | 0.00 | 0.00 | 82 | 987.6 |
| 20260510115559 | 60 | 15 | 1.7 | 4.3 | 0.00 | 0.00 | 0.00 | 83 | 987.5 |
| 20260510115056 | 60 | 28 | 1.7 | 5.2 | 0.00 | 0.00 | 0.00 | 83 | 987.6 |
| 20260510114552 | 60 | 18 | 1.7 | 5.2 | 0.00 | 0.00 | 0.00 | 83 | 987.6 |
| 20260510114049 | 60 | 13 | 2.6 | 5.2 | 0.00 | 0.00 | 0.00 | 82 | 987.4 |
| 20260510113543 | 60 | 31 | 0.9 | 4.3 | 0.00 | 0.00 | 0.00 | 82 | 987.0 |
| 20260510113041 | 59 | 334 | 1.7 | 4.3 | 0.00 | 0.00 | 0.00 | 82 | 986.9 |
| 20260510112538 | 59 | 30 | 1.7 | 2.6 | 0.00 | 0.00 | 0.00 | 82 | 986.9 |
| 20260510112034 | 59 | 38 | 2.6 | 2.6 | 0.00 | 0.00 | 0.00 | 82 | 986.9 |
| 20260510111531 | 58 | 41 | 1.7 | 2.6 | 0.00 | 0.00 | 0.00 | 83 | 986.9 |
| 20260510111027 | 58 | 353 | 0.0 | 2.6 | 0.00 | 0.00 | 0.00 | 85 | 986.8 |
| 20260510110523 | 57 | 16 | 0.9 | 2.6 | 0.00 | 0.00 | 0.00 | 86 | 986.6 |
| 20260510110020 | 57 | 82 | 0.0 | 1.7 | 0.00 | 0.00 | 0.00 | 88 | 986.5 |
| 20260510105515 | 56 | 44 | 0.0 | 1.7 | 0.00 | 0.00 | 0.00 | 90 | 986.5 |
| 20260510105010 | 55 | 43 | 0.9 | 2.6 | 0.00 | 0.00 | 0.00 | 92 | 986.5 |
| 20260510104507 | 55 | 2 | 1.7 | 2.6 | 0.00 | 0.00 | 0.00 | 94 | 986.6 |
| 20260510104003 | 55 | 329 | 0.9 | 2.6 | 0.00 | 0.00 | 0.00 | 94 | 986.6 |
| 20260510103501 | 55 | 17 | 1.7 | 1.7 | 0.00 | 0.00 | 0.00 | 94 | 986.7 |
| 20260510102956 | 55 | 9 | 2.6 | 2.6 | 0.00 | 0.00 | 0.00 | 94 | 986.6 |
| 20260510102452 | 55 | 10 | 0.9 | 2.6 | 0.00 | 0.00 | 0.00 | 93 | 986.8 |
| 20260510101949 | 55 | 66 | 0.0 | 1.7 | 0.00 | 0.00 | 0.00 | 93 | 986.5 |
| 20260510101447 | 56 | 10 | 0.9 | 1.7 | 0.00 | 0.00 | 0.00 | 93 | 986.6 |
| 20260510100945 | 56 | 24 | 0.9 | 1.7 | 0.00 | 0.00 | 0.00 | 92 | 986.5 |
| 20260510100441 | 56 | 89 | 0.0 | 1.7 | 0.00 | 0.00 | 0.00 | 92 | 986.3 |
| 20260510095937 | 56 | 186 | 0.0 | 0.0 | 0.00 | 0.00 | 0.00 | 92 | 986.2 |
| 20260510095433 | 56 | 113 | 0.0 | 0.0 | 0.00 | 0.00 | 0.00 | 93 | 986.2 |
| 20260510094932 | 56 | 107 | 0.0 | 0.9 | 0.00 | 0.00 | 0.00 | 92 | 986.2 |
| 20260510094427 | 56 | 69 | 0.0 | 0.9 | 0.00 | 0.00 | 0.00 | 92 | 986.0 |
| 20260510093923 | 56 | 0 | 0.0 | 1.7 | 0.00 | 0.00 | 0.00 | 92 | 985.9 |
| 20260510093419 | 56 | 83 | 0.0 | 0.9 | 0.00 | 0.00 | 0.00 | 91 | 986.0 |
| 20260510092915 | 56 | 50 | 0.0 | 1.7 | 0.00 | 0.00 | 0.00 | 91 | 986.0 |
| 20260510092413 | 57 | 25 | 0.9 | 1.7 | 0.00 | 0.00 | 0.00 | 90 | 985.8 |
| 20260510091907 | 57 | 30 | 0.0 | 1.7 | 0.00 | 0.00 | 0.00 | 90 | 985.8 |
| 20260510091404 | 57 | 355 | 0.9 | 1.7 | 0.00 | 0.00 | 0.00 | 90 | 985.7 |
| 20260510090901 | 56 | 124 | 0.0 | 0.0 | 0.00 | 0.00 | 0.00 | 91 | 985.8 |
| 20260510090357 | 56 | 186 | 0.0 | 0.9 | 0.00 | 0.00 | 0.00 | 92 | 985.6 |
| 20260510085853 | 56 | 51 | 0.0 | 1.7 | 0.00 | 0.00 | 0.00 | 91 | 985.4 |
| 20260510085348 | 57 | 359 | 0.9 | 1.7 | 0.00 | 0.00 | 0.00 | 90 | 985.7 |
| 20260510084844 | 57 | 21 | 0.9 | 1.7 | 0.00 | 0.00 | 0.00 | 90 | 985.7 |
| 20260510084341 | 57 | 55 | 0.0 | 0.9 | 0.00 | 0.00 | 0.00 | 89 | 985.4 |
| 20260510083838 | 57 | 50 | 0.0 | 0.0 | 0.00 | 0.00 | 0.00 | 89 | 985.2 |
| 20260510083335 | 57 | 54 | 0.0 | 1.7 | 0.00 | 0.00 | 0.00 | 89 | 985.2 |
| 20260510082830 | 57 | 50 | 0.0 | 0.9 | 0.00 | 0.00 | 0.00 | 89 | 985.1 |
| 20260510082327 | 57 | 339 | 0.0 | 0.9 | 0.00 | 0.00 | 0.00 | 88 | 985.1 |
| 20260510081825 | 57 | 25 | 0.9 | 1.7 | 0.00 | 0.00 | 0.00 | 89 | 984.9 |
| 20260510081317 | 57 | 274 | 0.0 | 0.9 | 0.00 | 0.00 | 0.00 | 89 | 985.1 |
| 20260510080813 | 57 | 63 | 0.0 | 1.7 | 0.00 | 0.00 | 0.00 | 89 | 985.2 |
| 20260510080308 | 57 | 23 | 0.9 | 1.7 | 0.00 | 0.00 | 0.00 | 88 | 985.7 |
| 20260510075805 | 57 | 355 | 0.0 | 1.7 | 0.00 | 0.00 | 0.00 | 88 | 985.8 |
| 20260510075306 | 57 | 50 | 0.0 | 1.7 | 0.00 | 0.00 | 0.00 | 89 | 985.6 |
| 20260510074759 | 57 | 131 | 0.0 | 1.7 | 0.00 | 0.00 | 0.00 | 89 | 985.7 |
| 20260510074256 | 57 | 66 | 0.0 | 0.0 | 0.00 | 0.00 | 0.00 | 88 | 985.6 |
| 20260510073752 | 57 | 89 | 0.0 | 0.9 | 0.00 | 0.00 | 0.00 | 89 | 985.3 |
| 20260510073248 | 57 | 77 | 0.0 | 0.0 | 0.00 | 0.00 | 0.00 | 88 | 985.2 |
| 20260510072744 | 57 | 123 | 0.0 | 0.9 | 0.00 | 0.00 | 0.00 | 88 | 985.1 |
| 20260510072241 | 57 | 22 | 0.0 | 0.0 | 0.00 | 0.00 | 0.00 | 88 | 985.1 |
| 20260510071737 | 57 | 66 | 0.0 | 0.9 | 0.00 | 0.00 | 0.00 | 87 | 985.0 |
| 20260510071234 | 57 | 60 | 0.0 | 0.0 | 0.00 | 0.00 | 0.00 | 86 | 985.2 |
| 20260510070733 | 58 | 113 | 0.0 | 0.0 | 0.00 | 0.00 | 0.00 | 86 | 985.2 |
| 20260510070229 | 58 | 113 | 0.0 | 0.9 | 0.00 | 0.00 | 0.00 | 85 | 985.1 |
| 20260510065724 | 59 | 230 | 0.0 | 0.0 | 0.00 | 0.00 | 0.00 | 83 | 985.0 |
| 20260510065220 | 58 | 89 | 0.0 | 0.0 | 0.00 | 0.00 | 0.00 | 84 | 985.0 |
| 20260510064717 | 58 | 89 | 0.0 | 1.7 | 0.00 | 0.00 | 0.00 | 83 | 985.1 |
| 20260510064215 | 59 | 76 | 0.0 | 0.9 | 0.00 | 0.00 | 0.00 | 82 | 985.1 |
| 20260510063711 | 59 | 328 | 0.9 | 0.9 | 0.00 | 0.00 | 0.00 | 83 | 985.0 |
| 20260510063207 | 59 | 103 | 0.0 | 1.7 | 0.00 | 0.00 | 0.00 | 82 | 985.1 |
| 20260510062704 | 60 | 29 | 0.0 | 1.7 | 0.00 | 0.00 | 0.00 | 79 | 985.4 |
| 20260510062201 | 61 | 10 | 0.0 | 1.7 | 0.00 | 0.00 | 0.00 | 78 | 985.3 |
| 20260510061655 | 61 | 44 | 0.0 | 1.7 | 0.00 | 0.00 | 0.00 | 77 | 985.2 |
| 20260510061153 | 61 | 326 | 0.0 | 2.6 | 0.00 | 0.00 | 0.00 | 78 | 985.2 |
| 20260510060649 | 60 | 323 | 0.9 | 4.3 | 0.00 | 0.00 | 0.00 | 78 | 985.4 |
| 20260510060146 | 57 | 298 | 0.0 | 4.3 | 0.00 | 0.00 | 0.00 | 90 | 985.2 |
| 20260510055642 | 58 | 5 | 1.7 | 2.6 | 0.00 | 0.00 | 0.00 | 89 | 985.0 |
| 20260510055140 | 57 | 26 | 0.9 | 1.7 | 0.00 | 0.00 | 0.00 | 88 | 985.1 |
| 20260510054636 | 58 | 76 | 0.0 | 0.0 | 0.00 | 0.00 | 0.00 | 87 | 984.9 |
| 20260510054132 | 58 | 37 | 0.0 | 0.0 | 0.00 | 0.00 | 0.00 | 87 | 985.0 |
| 20260510053630 | 58 | 37 | 0.0 | 0.9 | 0.00 | 0.00 | 0.00 | 88 | 985.0 |
| 20260510053128 | 58 | 89 | 0.0 | 0.9 | 0.00 | 0.00 | 0.00 | 88 | 984.6 |
| 20260510052623 | 59 | 113 | 0.0 | 0.0 | 0.00 | 0.00 | 0.00 | 87 | 984.9 |
| 20260510052119 | 59 | 103 | 0.0 | 0.9 | 0.00 | 0.00 | 0.00 | 87 | 985.0 |
| 20260510051609 | 59 | 135 | 0.0 | 0.9 | 0.00 | 0.00 | 0.00 | 86 | 984.9 |
| 20260510051107 | 59 | 224 | 0.0 | 0.9 | 0.00 | 0.00 | 0.00 | 85 | 984.9 |
| 20260510050604 | 60 | 309 | 0.0 | 0.9 | 0.00 | 0.00 | 0.00 | 85 | 984.8 |
| 20260510050101 | 59 | 309 | 0.0 | 1.7 | 0.00 | 0.00 | 0.00 | 86 | 984.7 |
| 20260510045558 | 59 | 130 | 0.0 | 0.9 | 0.00 | 0.00 | 0.00 | 86 | 984.8 |
| 20260510045054 | 59 | 66 | 0.0 | 0.9 | 0.00 | 0.00 | 0.00 | 85 | 984.5 |
| 20260510044550 | 59 | 89 | 0.0 | 0.9 | 0.00 | 0.00 | 0.00 | 85 | 984.6 |
| 20260510044048 | 60 | 49 | 0.0 | 0.9 | 0.00 | 0.00 | 0.00 | 85 | 984.7 |
| 20260510043543 | 60 | 52 | 0.0 | 0.9 | 0.00 | 0.00 | 0.00 | 84 | 984.8 |
| 20260510043039 | 60 | 66 | 0.0 | 0.9 | 0.00 | 0.00 | 0.00 | 84 | 984.6 |
| 20260510042533 | 60 | 103 | 0.0 | 0.0 | 0.00 | 0.00 | 0.00 | 83 | 984.6 |
| 20260510042028 | 60 | 113 | 0.0 | 0.9 | 0.00 | 0.00 | 0.00 | 83 | 984.7 |
| 20260510041525 | 60 | 55 | 0.0 | 0.9 | 0.00 | 0.00 | 0.00 | 83 | 984.7 |
| 20260510041023 | 60 | 5 | 0.0 | 0.9 | 0.00 | 0.00 | 0.00 | 83 | 984.4 |
| 20260510040519 | 59 | 29 | 0.0 | 0.9 | 0.00 | 0.00 | 0.00 | 83 | 984.5 |
| 20260510040015 | 60 | 222 | 0.0 | 0.9 | 0.00 | 0.00 | 0.00 | 83 | 984.4 |
| 20260510035512 | 60 | 58 | 0.0 | 1.7 | 0.00 | 0.00 | 0.00 | 82 | 984.2 |
| 20260510035010 | 60 | 50 | 0.0 | 1.7 | 0.00 | 0.00 | 0.00 | 81 | 984.4 |
| 20260510034510 | 61 | 24 | 0.0 | 1.7 | 0.00 | 0.00 | 0.00 | 81 | 984.2 |
| 20260510034006 | 61 | 305 | 0.0 | 1.7 | 0.00 | 0.00 | 0.00 | 79 | 984.3 |
| 20260510033502 | 61 | 182 | 0.0 | 0.9 | 0.00 | 0.00 | 0.00 | 78 | 984.3 |
| 20260510032959 | 61 | 241 | 2.6 | 2.6 | 0.00 | 0.00 | 0.00 | 79 | 984.3 |
| 20260510032456 | 60 | 55 | 0.0 | 0.0 | 0.00 | 0.00 | 0.00 | 80 | 984.0 |
| 20260510031951 | 61 | 89 | 0.0 | 0.0 | 0.00 | 0.00 | 0.00 | 79 | 984.0 |
| 20260510031447 | 61 | 89 | 0.0 | 0.9 | 0.00 | 0.00 | 0.00 | 78 | 984.0 |
| 20260510030943 | 62 | 89 | 0.0 | 0.9 | 0.00 | 0.00 | 0.00 | 77 | 984.2 |
| 20260510030438 | 62 | 89 | 0.0 | 0.9 | 0.00 | 0.00 | 0.00 | 76 | 984.1 |
| 20260510025936 | 62 | 89 | 0.0 | 0.0 | 0.00 | 0.00 | 0.00 | 74 | 983.9 |
| 20260510025433 | 62 | 69 | 0.0 | 0.9 | 0.00 | 0.00 | 0.00 | 72 | 983.8 |
| 20260510024931 | 63 | 102 | 0.0 | 0.0 | 0.00 | 0.00 | 0.00 | 72 | 983.8 |
| 20260510024427 | 63 | 76 | 0.0 | 0.9 | 0.00 | 0.00 | 0.00 | 70 | 983.6 |
| 20260510023923 | 64 | 346 | 0.9 | 1.7 | 0.00 | 0.00 | 0.00 | 70 | 983.5 |
| 20260510023419 | 64 | 350 | 0.9 | 1.7 | 0.00 | 0.00 | 0.00 | 70 | 983.1 |
| 20260510022917 | 64 | 35 | 0.9 | 0.9 | 0.00 | 0.00 | 0.00 | 68 | 982.9 |
| 20260510022415 | 64 | 54 | 0.0 | 0.9 | 0.00 | 0.00 | 0.00 | 67 | 983.2 |
| 20260510021915 | 65 | 55 | 0.0 | 0.0 | 0.00 | 0.00 | 0.00 | 66 | 982.9 |
| 20260510021413 | 65 | 55 | 0.0 | 0.0 | 0.00 | 0.00 | 0.00 | 66 | 983.1 |
| 20260510020909 | 65 | 55 | 0.0 | 0.9 | 0.00 | 0.00 | 0.00 | 63 | 982.8 |
| 20260510020404 | 66 | 76 | 0.0 | 0.0 | 0.00 | 0.00 | 0.00 | 62 | 982.9 |
| 20260510015900 | 67 | 89 | 0.0 | 0.9 | 0.00 | 0.00 | 0.00 | 61 | 982.8 |
| 20260510015356 | 67 | 44 | 0.0 | 1.7 | 0.00 | 0.00 | 0.00 | 61 | 982.7 |
| 20260510014851 | 67 | 30 | 0.0 | 1.7 | 0.00 | 0.00 | 0.00 | 61 | 982.2 |
| 20260510014349 | 68 | 313 | 0.0 | 1.7 | 0.00 | 0.00 | 0.00 | 59 | 982.5 |
| 20260510013845 | 68 | 13 | 0.0 | 1.7 | 0.00 | 0.00 | 0.00 | 58 | 982.5 |
| 20260510013341 | 68 | 69 | 0.0 | 0.9 | 0.00 | 0.00 | 0.00 | 57 | 982.2 |
| 20260510012836 | 69 | 269 | 0.0 | 0.0 | 0.00 | 0.00 | 0.00 | 56 | 981.9 |
| 20260510012336 | 70 | 89 | 0.0 | 0.9 | 0.00 | 0.00 | 0.00 | 53 | 981.9 |
| 20260510011831 | 71 | 76 | 0.0 | 0.9 | 0.00 | 0.00 | 0.00 | 52 | 982.0 |
| 20260510011326 | 72 | 268 | 0.0 | 0.9 | 0.00 | 0.00 | 0.00 | 50 | 982.3 |
| 20260510010823 | 73 | 297 | 0.0 | 0.0 | 0.00 | 0.00 | 0.00 | 49 | 982.1 |
| 20260510010321 | 73 | 62 | 0.0 | 0.0 | 0.00 | 0.00 | 0.00 | 48 | 982.0 |
| 20260510005817 | 74 | 117 | 0.0 | 0.0 | 0.00 | 0.00 | 0.00 | 46 | 982.0 |
| 20260510005313 | 75 | 269 | 0.0 | 0.9 | 0.00 | 0.00 | 0.00 | 45 | 981.7 |
| 20260510004811 | 75 | 230 | 0.0 | 0.0 | 0.00 | 0.00 | 0.00 | 43 | 981.9 |
| 20260510004308 | 76 | 230 | 0.0 | 0.0 | 0.00 | 0.00 | 0.00 | 41 | 981.7 |
| 20260510003806 | 76 | 230 | 0.0 | 0.0 | 0.00 | 0.00 | 0.00 | 41 | 981.7 |
| 20260510003303 | 77 | 284 | 0.0 | 0.9 | 0.00 | 0.00 | 0.00 | 40 | 981.6 |
| 20260510002801 | 77 | 217 | 0.0 | 0.0 | 0.00 | 0.00 | 0.00 | 40 | 981.7 |
| 20260510002259 | 78 | 256 | 0.0 | 1.7 | 0.00 | 0.00 | 0.00 | 37 | 981.4 |
| 20260510001755 | 78 | 246 | 0.0 | 3.5 | 0.00 | 0.00 | 0.00 | 36 | 981.7 |
| 20260510001254 | 78 | 240 | 0.0 | 0.0 | 0.00 | 0.00 | 0.00 | 38 | 981.7 |
| 20260510000749 | 79 | 63 | 0.0 | 0.0 | 0.00 | 0.00 | 0.00 | 36 | 981.6 |
| 20260510000248 | 79 | 339 | 0.0 | 2.6 | 0.00 | 0.00 | 0.00 | 35 | 981.6 |
| 20260509235744 | 79 | 269 | 0.0 | 1.7 | 0.00 | 0.00 | 0.00 | 35 | 981.5 |
| 20260509235240 | 79 | 256 | 0.0 | 3.5 | 0.00 | 0.00 | 0.00 | 35 | 981.6 |
| 20260509234736 | 80 | 237 | 0.0 | 1.7 | 0.00 | 0.00 | 0.00 | 36 | 981.7 |
| 20260509234233 | 80 | 293 | 0.0 | 3.5 | 0.00 | 0.00 | 0.00 | 34 | 981.8 |
| 20260509233731 | 81 | 274 | 1.7 | 2.6 | 0.00 | 0.00 | 0.00 | 34 | 981.8 |
| 20260509233228 | 82 | 91 | 0.0 | 2.6 | 0.00 | 0.00 | 0.00 | 33 | 981.8 |
| 20260509232724 | 82 | 58 | 0.0 | 2.6 | 0.00 | 0.00 | 0.00 | 34 | 981.7 |
| 20260509232222 | 83 | 322 | 0.0 | 2.6 | 0.00 | 0.00 | 0.00 | 32 | 981.6 |
| 20260509231718 | 83 | 282 | 0.0 | 3.5 | 0.00 | 0.00 | 0.00 | 31 | 981.7 |
| 20260509231215 | 83 | 320 | 1.7 | 4.3 | 0.00 | 0.00 | 0.00 | 32 | 981.8 |
| 20260509230713 | 83 | 336 | 1.7 | 2.6 | 0.00 | 0.00 | 0.00 | 32 | 981.6 |
| 20260509230209 | 83 | 326 | 1.7 | 4.3 | 0.00 | 0.00 | 0.00 | 33 | 981.7 |
| 20260509225705 | 82 | 216 | 0.9 | 6.1 | 0.00 | 0.00 | 0.00 | 33 | 981.6 |
| 20260509225201 | 83 | 166 | 0.0 | 3.5 | 0.00 | 0.00 | 0.00 | 34 | 981.6 |
| 20260509224657 | 83 | 197 | 0.0 | 4.3 | 0.00 | 0.00 | 0.00 | 33 | 981.6 |
| 20260509224154 | 84 | 242 | 0.0 | 1.7 | 0.00 | 0.00 | 0.00 | 32 | 981.8 |
| 20260509223650 | 84 | 111 | 4.3 | 6.1 | 0.00 | 0.00 | 0.00 | 30 | 981.3 |
| 20260509223148 | 83 | 235 | 4.3 | 5.2 | 0.00 | 0.00 | 0.00 | 30 | 981.6 |
| 20260509222645 | 83 | 224 | 1.7 | 3.5 | 0.00 | 0.00 | 0.00 | 30 | 981.6 |
| 20260509222140 | 82 | 299 | 1.7 | 6.1 | 0.00 | 0.00 | 0.00 | 30 | 981.6 |
| 20260509221636 | 83 | 351 | 2.6 | 4.3 | 0.00 | 0.00 | 0.00 | 28 | 981.9 |
| 20260509221132 | 83 | 346 | 3.5 | 4.3 | 0.00 | 0.00 | 0.00 | 29 | 981.9 |
| 20260509220628 | 84 | 0 | 2.6 | 3.5 | 0.00 | 0.00 | 0.00 | 30 | 981.8 |
| 20260509220124 | 82 | 332 | 3.5 | 4.3 | 0.00 | 0.00 | 0.00 | 29 | 981.8 |
| 20260509215620 | 83 | 348 | 1.7 | 5.2 | 0.00 | 0.00 | 0.00 | 32 | 981.6 |
| 20260509215117 | 84 | 328 | 2.6 | 5.2 | 0.00 | 0.00 | 0.00 | 28 | 981.7 |
| 20260509214614 | 84 | 221 | 0.0 | 2.6 | 0.00 | 0.00 | 0.00 | 31 | 981.7 |
| 20260509214111 | 83 | 202 | 1.7 | 6.1 | 0.00 | 0.00 | 0.00 | 32 | 981.9 |
| 20260509213607 | 84 | 220 | 1.7 | 6.1 | 0.00 | 0.00 | 0.00 | 30 | 981.7 |
| 20260509213104 | 83 | 308 | 1.7 | 4.3 | 0.00 | 0.00 | 0.00 | 30 | 981.8 |
| 20260509212601 | 83 | 342 | 2.6 | 8.7 | 0.00 | 0.00 | 0.00 | 30 | 981.9 |
| 20260509212058 | 86 | 348 | 3.5 | 4.3 | 0.00 | 0.00 | 0.00 | 28 | 981.7 |
| 20260509211554 | 84 | 17 | 0.9 | 3.5 | 0.00 | 0.00 | 0.00 | 29 | 981.9 |
| 20260509211050 | 83 | 351 | 1.7 | 7.0 | 0.00 | 0.00 | 0.00 | 29 | 981.8 |
| 20260509210548 | 82 | 230 | 3.5 | 7.0 | 0.00 | 0.00 | 0.00 | 30 | 981.8 |
| 20260509210044 | 83 | 313 | 1.7 | 7.0 | 0.00 | 0.00 | 0.00 | 29 | 982.2 |
| 20260509205538 | 84 | 21 | 0.0 | 4.3 | 0.00 | 0.00 | 0.00 | 31 | 982.0 |
| 20260509205034 | 83 | 290 | 0.0 | 2.6 | 0.00 | 0.00 | 0.00 | 26 | 982.1 |
| 20260509204530 | 84 | 96 | 1.7 | 2.6 | 0.00 | 0.00 | 0.00 | 34 | 982.1 |
| 20260509204026 | 83 | 340 | 3.5 | 3.5 | 0.00 | 0.00 | 0.00 | 29 | 982.1 |
| 20260509203522 | 83 | 347 | 1.7 | 4.3 | 0.00 | 0.00 | 0.00 | 35 | 982.1 |
| 20260509203021 | 82 | 216 | 0.9 | 3.5 | 0.00 | 0.00 | 0.00 | 28 | 982.0 |
| 20260509202520 | 82 | 319 | 1.7 | 4.3 | 0.00 | 0.00 | 0.00 | 30 | 982.3 |
| 20260509202016 | 82 | 337 | 1.7 | 8.7 | 0.00 | 0.00 | 0.00 | 35 | 982.3 |
| 20260509201511 | 82 | 271 | 1.7 | 5.2 | 0.00 | 0.00 | 0.00 | 29 | 982.4 |
| 20260509201009 | 82 | 354 | 2.6 | 7.8 | 0.00 | 0.00 | 0.00 | 32 | 982.4 |
| 20260509200504 | 83 | 12 | 1.7 | 3.5 | 0.00 | 0.00 | 0.00 | 28 | 982.3 |
| 20260509200001 | 83 | 200 | 0.0 | 7.0 | 0.00 | 0.00 | 0.00 | 29 | 982.5 |
| 20260509195456 | 82 | 147 | 0.0 | 3.5 | 0.00 | 0.00 | 0.00 | 34 | 982.5 |
| 20260509194956 | 82 | 297 | 0.9 | 5.2 | 0.00 | 0.00 | 0.00 | 34 | 982.5 |
| 20260509194451 | 82 | 228 | 2.6 | 4.3 | 0.00 | 0.00 | 0.00 | 32 | 982.5 |
| 20260509193948 | 82 | 330 | 1.7 | 5.2 | 0.00 | 0.00 | 0.00 | 30 | 982.6 |
| 20260509193443 | 84 | 239 | 2.6 | 6.1 | 0.00 | 0.00 | 0.00 | 31 | 982.6 |
| 20260509192939 | 82 | 321 | 1.7 | 2.6 | 0.00 | 0.00 | 0.00 | 31 | 982.5 |
| 20260509192436 | 81 | 266 | 0.9 | 4.3 | 0.00 | 0.00 | 0.00 | 33 | 982.7 |
| 20260509191931 | 82 | 310 | 2.6 | 9.6 | 0.00 | 0.00 | 0.00 | 34 | 982.6 |
| 20260509191426 | 82 | 236 | 0.0 | 4.3 | 0.00 | 0.00 | 0.00 | 34 | 982.6 |
| 20260509190923 | 81 | 315 | 2.6 | 7.8 | 0.00 | 0.00 | 0.00 | 35 | 982.7 |
| 20260509190420 | 81 | 356 | 1.7 | 5.2 | 0.00 | 0.00 | 0.00 | 33 | 982.8 |
| 20260509185918 | 82 | 228 | 0.0 | 5.2 | 0.00 | 0.00 | 0.00 | 35 | 982.9 |
| 20260509185415 | 81 | 346 | 2.6 | 5.2 | 0.00 | 0.00 | 0.00 | 32 | 982.7 |
| 20260509184911 | 81 | 337 | 3.5 | 9.6 | 0.00 | 0.00 | 0.00 | 34 | 982.9 |
| 20260509184409 | 82 | 133 | 1.7 | 2.6 | 0.00 | 0.00 | 0.00 | 30 | 982.9 |
| 20260509183905 | 81 | 344 | 6.1 | 6.1 | 0.00 | 0.00 | 0.00 | 31 | 982.9 |
| 20260509183359 | 81 | 229 | 3.5 | 5.2 | 0.00 | 0.00 | 0.00 | 33 | 982.6 |
| 20260509182856 | 80 | 317 | 1.7 | 5.2 | 0.00 | 0.00 | 0.00 | 35 | 982.8 |
| 20260509182353 | 80 | 200 | 0.0 | 3.5 | 0.00 | 0.00 | 0.00 | 33 | 982.6 |
| 20260509181851 | 81 | 109 | 0.0 | 3.5 | 0.00 | 0.00 | 0.00 | 34 | 982.8 |
| 20260509181347 | 81 | 224 | 0.0 | 5.2 | 0.00 | 0.00 | 0.00 | 36 | 982.7 |
| 20260509180845 | 80 | 230 | 0.0 | 4.3 | 0.00 | 0.00 | 0.00 | 37 | 982.7 |
| 20260509180340 | 80 | 0 | 1.7 | 7.0 | 0.00 | 0.00 | 0.00 | 40 | 982.4 |
| 20260509175838 | 81 | 301 | 1.7 | 4.3 | 0.00 | 0.00 | 0.00 | 40 | 982.8 |
| 20260509175334 | 80 | 328 | 2.6 | 4.3 | 0.00 | 0.00 | 0.00 | 37 | 982.8 |
| 20260509174830 | 80 | 350 | 2.6 | 4.3 | 0.00 | 0.00 | 0.00 | 37 | 982.8 |
| 20260509174326 | 80 | 224 | 3.5 | 4.3 | 0.00 | 0.00 | 0.00 | 39 | 982.7 |
| 20260509173822 | 79 | 9 | 1.7 | 6.1 | 0.00 | 0.00 | 0.00 | 37 | 983.0 |
| 20260509173317 | 78 | 359 | 5.2 | 6.1 | 0.00 | 0.00 | 0.00 | 39 | 982.8 |
| 20260509172814 | 80 | 227 | 1.7 | 3.5 | 0.00 | 0.00 | 0.00 | 43 | 982.9 |
| 20260509172311 | 79 | 304 | 2.6 | 3.5 | 0.00 | 0.00 | 0.00 | 39 | 983.1 |
| 20260509171806 | 79 | 346 | 0.0 | 4.3 | 0.00 | 0.00 | 0.00 | 41 | 983.2 |
| 20260509171303 | 79 | 339 | 0.9 | 4.3 | 0.00 | 0.00 | 0.00 | 41 | 983.2 |
| 20260509170759 | 79 | 322 | 2.6 | 4.3 | 0.00 | 0.00 | 0.00 | 40 | 983.1 |
| 20260509170255 | 79 | 232 | 2.6 | 4.3 | 0.00 | 0.00 | 0.00 | 41 | 983.1 |
| 20260509165754 | 79 | 10 | 1.7 | 3.5 | 0.00 | 0.00 | 0.00 | 42 | 983.2 |
| 20260509165249 | 78 | 332 | 3.5 | 6.1 | 0.00 | 0.00 | 0.00 | 41 | 983.0 |
| 20260509164746 | 78 | 351 | 2.6 | 8.7 | 0.00 | 0.00 | 0.00 | 41 | 983.1 |
| 20260509164242 | 79 | 30 | 0.9 | 2.6 | 0.00 | 0.00 | 0.00 | 45 | 982.9 |
| 20260509163744 | 79 | 328 | 2.6 | 3.5 | 0.00 | 0.00 | 0.00 | 43 | 983.1 |
| 20260509163235 | 77 | 351 | 5.2 | 7.0 | 0.00 | 0.00 | 0.00 | 42 | 983.1 |
| 20260509162734 | 79 | 223 | 0.0 | 2.6 | 0.00 | 0.00 | 0.00 | 45 | 983.4 |
| 20260509162228 | 78 | 358 | 4.3 | 4.3 | 0.00 | 0.00 | 0.00 | 41 | 983.2 |
| 20260509161724 | 77 | 323 | 2.6 | 5.2 | 0.00 | 0.00 | 0.00 | 46 | 983.0 |
| 20260509161220 | 77 | 337 | 2.6 | 5.2 | 0.00 | 0.00 | 0.00 | 46 | 983.0 |
| 20260509160715 | 76 | 350 | 3.5 | 7.0 | 0.00 | 0.00 | 0.00 | 49 | 983.1 |
| 20260509160212 | 76 | 271 | 0.9 | 5.2 | 0.00 | 0.00 | 0.00 | 47 | 983.1 |
| 20260509155707 | 76 | 152 | 0.9 | 4.3 | 0.00 | 0.00 | 0.00 | 49 | 983.1 |
| 20260509155204 | 77 | 324 | 0.9 | 1.7 | 0.00 | 0.00 | 0.00 | 51 | 983.2 |
| 20260509154700 | 75 | 287 | 0.0 | 6.1 | 0.00 | 0.00 | 0.00 | 49 | 983.1 |
| 20260509154157 | 76 | 339 | 1.7 | 3.5 | 0.00 | 0.00 | 0.00 | 50 | 982.9 |
| 20260509153654 | 75 | 225 | 4.3 | 4.3 | 0.00 | 0.00 | 0.00 | 53 | 982.7 |
| 20260509153151 | 75 | 3 | 1.7 | 4.3 | 0.00 | 0.00 | 0.00 | 55 | 983.1 |
| 20260509152646 | 75 | 350 | 1.7 | 5.2 | 0.00 | 0.00 | 0.00 | 54 | 983.0 |
| 20260509152144 | 74 | 248 | 0.0 | 2.6 | 0.00 | 0.00 | 0.00 | 56 | 983.0 |
| 20260509151640 | 73 | 3 | 0.0 | 4.3 | 0.00 | 0.00 | 0.00 | 60 | 982.9 |
| 20260509151137 | 73 | 329 | 0.9 | 3.5 | 0.00 | 0.00 | 0.00 | 61 | 983.0 |
| 20260509150635 | 72 | 345 | 2.6 | 4.3 | 0.00 | 0.00 | 0.00 | 61 | 983.0 |
| 20260509150133 | 71 | 315 | 0.0 | 3.5 | 0.00 | 0.00 | 0.00 | 65 | 983.0 |
| 20260509145629 | 71 | 2 | 1.7 | 2.6 | 0.00 | 0.00 | 0.00 | 66 | 983.1 |
| 20260509145125 | 71 | 193 | 1.7 | 4.3 | 0.00 | 0.00 | 0.00 | 68 | 983.0 |
| 20260509144621 | 71 | 279 | 0.9 | 2.6 | 0.00 | 0.00 | 0.00 | 67 | 983.1 |